Location: Azat
(46.0765°N, 1.7600°E)
Time: 10:33:59
(UTC+00:00)

NOSS 3-4 (A) - Pass Details

Date: 09 April 2020
Orbit: 892 x 1320 km, 63.4° (Epoch: 01 June)

Event Time Altitude Azimuth Distance (km) Brightness Sun altitude
Rises 19:24:51 0° 320° (NW) 3,825 7.8 -9.5°
Reaches altitude 10° 19:27:22 10° 319° (NW) 2,926 7.1 -9.9°
Maximum altitude 19:34:23 80° 234° (SW) 1,186 4.0 -11.0°
Drops below altitude 10° 19:42:08 10° 149° (SSE) 3,216 5.7 -12.2°
Enters shadow 19:42:34 - 149° (SSE) 3,366 5.8 -12.3°
